GFSNIL_prec_precacc24_216.txt.gz
Total_Precipitation_Accumulation
0.02 0.02 0.03 0.04 0.06 0.09 0.11 0.14 0.16 0.21 0.28 0.34 0.44 0.51 0.52 0.47 0.34 0.28 0.31 0.33 0.34 0.23
0.01 0.01 0.01 0.02 0.04 0.06 0.07 0.10 0.16 0.16 0.16 0.20 0.22 0.22 0.24 0.21 0.19 0.16 0.12 0.16 0.23 0.10
0.02 0.03 0.05 0.03 0.05 0.04 0.05 0.06 0.07 0.08 0.11 0.12 0.15 0.16 0.14 0.14 0.17 0.16 0.07 0.04 0.05 0.03
0.02 0.02 0.02 0.02 0.01 0.03 0.03 0.03 0.04 0.05 0.06 0.07 0.11 0.15 0.15 0.13 0.11 0.10 0.04 0.04 0.03 0.03
0.02 0.02 0.01 0.02 0.02 0.02 0.02 0.03 0.04 0.06 0.08 0.08 0.09 0.09 0.08 0.07 0.05 0.03 0.02 0.02 0.02 0.02
0.02 0.02 0.01 0.02 0.03 0.03 0.03 0.04 0.04 0.05 0.08 0.09 0.08 0.07 0.04 0.03 0.02 0.01 0.01 0.01 0.01 0.01
0.01 0.01 0.01 0.01 0.01 0.01 0.02 0.02 0.03 0.03 0.03 0.03 0.04 0.02 0.01 0.01 0.00 0.00 0.00 0.00 0.00 0.00
0.01 0.01 0.02 0.02 0.02 0.02 0.01 0.02 0.02 0.01 0.01 0.01 0.01 0.01 0.00 0.00 0.00 0.00 0.00 0.00 0.00 0.00
0.03 0.02 0.02 0.02 0.03 0.03 0.02 0.02 0.02 0.02 0.02 0.01 0.01 0.02 0.02 0.01 0.00 0.00 0.00 0.00 0.00 0.01
0.02 0.02 0.03 0.05 0.06 0.09 0.12 0.11 0.07 0.05 0.05 0.04 0.02 0.04 0.03 0.03 0.01 0.00 0.00 0.00 0.01 0.01
0.01 0.02 0.02 0.03 0.05 0.05 0.07 0.04 0.02 0.01 0.00 0.01 0.01 0.03 0.03 0.05 0.02 0.01 0.02 0.05 0.07 0.09
0.01 0.01 0.01 0.03 0.04 0.04 0.04 0.05 0.04 0.03 0.03 0.03 0.04 0.09 0.12 0.14 0.09 0.10 0.13 0.17 0.20 0.23
0.00 0.00 0.00 0.01 0.02 0.07 0.08 0.09 0.12 0.17 0.17 0.21 0.26 0.33 0.39 0.39 0.34 0.32 0.27 0.26 0.27 0.29
0.01 0.02 0.02 0.04 0.07 0.13 0.19 0.24 0.30 0.36 0.39 0.39 0.34 0.31 0.32 0.29 0.26 0.24 0.27 0.30 0.28 0.26

GFSNIL_prec_precacc24_219.txt.gz
Total_Precipitation_Accumulation
0.01 0.01 0.01 0.02 0.03 0.06 0.08 0.09 0.15 0.23 0.28 0.30 0.37 0.42 0.44 0.35 0.24 0.20 0.27 0.34 0.38 0.40
0.01 0.01 0.01 0.01 0.03 0.04 0.05 0.07 0.13 0.15 0.18 0.22 0.23 0.24 0.27 0.23 0.19 0.15 0.12 0.19 0.35 0.55
0.02 0.03 0.05 0.03 0.05 0.04 0.05 0.05 0.05 0.06 0.09 0.11 0.16 0.20 0.22 0.18 0.18 0.19 0.13 0.12 0.13 0.15
0.02 0.02 0.02 0.02 0.01 0.03 0.02 0.02 0.04 0.06 0.07 0.10 0.16 0.21 0.21 0.18 0.13 0.12 0.08 0.11 0.10 0.15
0.02 0.02 0.01 0.02 0.01 0.01 0.02 0.03 0.04 0.06 0.09 0.10 0.11 0.11 0.10 0.10 0.09 0.08 0.08 0.07 0.07 0.08
0.02 0.02 0.01 0.02 0.03 0.02 0.03 0.03 0.04 0.05 0.08 0.10 0.12 0.12 0.10 0.08 0.07 0.06 0.05 0.04 0.04 0.03
0.01 0.01 0.01 0.01 0.01 0.01 0.02 0.02 0.03 0.03 0.04 0.04 0.07 0.07 0.06 0.05 0.05 0.03 0.02 0.02 0.01 0.00
0.01 0.01 0.02 0.02 0.02 0.02 0.01 0.02 0.02 0.02 0.02 0.03 0.05 0.06 0.05 0.03 0.02 0.01 0.00 0.00 0.00 0.00
0.01 0.01 0.01 0.01 0.02 0.02 0.02 0.02 0.02 0.03 0.04 0.06 0.06 0.10 0.06 0.02 0.01 0.00 0.00 0.00 0.00 0.01
0.00 0.00 0.00 0.01 0.03 0.03 0.03 0.03 0.02 0.02 0.03 0.06 0.03 0.06 0.03 0.03 0.01 0.00 0.00 0.00 0.01 0.01
0.00 0.00 0.00 0.00 0.00 0.01 0.01 0.01 0.01 0.01 0.01 0.00 0.01 0.03 0.03 0.05 0.02 0.01 0.02 0.05 0.07 0.10
0.01 0.01 0.00 0.00 0.00 0.00 0.00 0.01 0.01 0.02 0.02 0.02 0.04 0.09 0.12 0.14 0.09 0.10 0.14 0.19 0.23 0.27
0.00 0.00 0.00 0.00 0.00 0.00 0.00 0.01 0.02 0.08 0.15 0.21 0.25 0.32 0.39 0.41 0.37 0.38 0.33 0.31 0.30 0.30
0.01 0.02 0.02 0.04 0.06 0.08 0.12 0.15 0.19 0.24 0.28 0.31 0.33 0.31 0.35 0.35 0.32 0.31 0.32 0.32 0.30 0.27

GFSNIL_prec_precacc24_222.txt.gz
Total_Precipitation_Accumulation
0.01 0.01 0.01 0.01 0.02 0.04 0.07 0.09 0.15 0.23 0.28 0.33 0.41 0.44 0.46 0.34 0.23 0.18 0.23 0.28 0.36 0.42
0.01 0.01 0.01 0.01 0.03 0.04 0.05 0.07 0.12 0.14 0.18 0.22 0.25 0.26 0.31 0.27 0.22 0.21 0.19 0.24 0.42 0.63
0.02 0.03 0.05 0.03 0.05 0.04 0.05 0.05 0.05 0.06 0.09 0.11 0.16 0.23 0.25 0.24 0.28 0.31 0.22 0.21 0.24 0.23
0.02 0.02 0.02 0.02 0.01 0.03 0.02 0.02 0.04 0.05 0.07 0.10 0.16 0.22 0.23 0.21 0.19 0.19 0.13 0.15 0.16 0.19
0.02 0.02 0.01 0.02 0.01 0.01 0.02 0.03 0.04 0.06 0.08 0.09 0.10 0.10 0.10 0.11 0.11 0.11 0.12 0.11 0.11 0.11
0.03 0.02 0.01 0.02 0.03 0.02 0.03 0.03 0.04 0.05 0.07 0.09 0.10 0.11 0.09 0.09 0.09 0.08 0.07 0.07 0.08 0.10
0.01 0.01 0.01 0.01 0.01 0.02 0.02 0.02 0.03 0.03 0.04 0.05 0.06 0.07 0.06 0.08 0.09 0.10 0.12 0.10 0.07 0.05
0.01 0.02 0.02 0.02 0.02 0.02 0.01 0.02 0.02 0.02 0.03 0.03 0.05 0.08 0.08 0.08 0.08 0.08 0.06 0.05 0.04 0.01
0.01 0.01 0.01 0.01 0.02 0.02 0.02 0.02 0.02 0.03 0.04 0.06 0.07 0.16 0.10 0.06 0.04 0.03 0.03 0.01 0.01 0.01
0.00 0.00 0.00 0.01 0.02 0.02 0.02 0.02 0.02 0.03 0.04 0.05 0.05 0.11 0.05 0.05 0.02 0.01 0.00 0.01 0.01 0.01
0.00 0.00 0.00 0.00 0.00 0.01 0.01 0.02 0.02 0.01 0.01 0.01 0.02 0.05 0.04 0.06 0.02 0.01 0.02 0.05 0.07 0.10
0.01 0.01 0.01 0.00 0.00 0.00 0.00 0.00 0.00 0.01 0.01 0.01 0.05 0.10 0.09 0.14 0.10 0.11 0.14 0.19 0.23 0.27
0.00 0.00 0.00 0.00 0.00 0.00 0.00 0.00 0.01 0.03 0.07 0.13 0.16 0.20 0.23 0.28 0.34 0.37 0.33 0.31 0.30 0.31
0.01 0.02 0.03 0.04 0.06 0.08 0.12 0.15 0.18 0.21 0.22 0.23 0.20 0.17 0.20 0.22 0.26 0.28 0.31 0.32 0.31 0.27

GFSNIL_prec_precacc24_225.txt.gz
Total_Precipitation_Accumulation
0.01 0.01 0.01 0.01 0.02 0.04 0.07 0.09 0.15 0.23 0.28 0.33 0.41 0.45 0.46 0.34 0.23 0.19 0.24 0.31 0.43 0.51
0.01 0.01 0.01 0.01 0.03 0.04 0.05 0.07 0.12 0.14 0.18 0.22 0.25 0.26 0.31 0.27 0.22 0.22 0.21 0.28 0.49 0.74
0.02 0.03 0.05 0.03 0.05 0.04 0.05 0.05 0.05 0.06 0.09 0.11 0.16 0.23 0.25 0.24 0.29 0.33 0.26 0.25 0.28 0.30
0.02 0.02 0.02 0.02 0.01 0.03 0.02 0.02 0.04 0.05 0.07 0.10 0.16 0.22 0.23 0.21 0.19 0.19 0.15 0.17 0.19 0.22
0.02 0.02 0.01 0.02 0.01 0.01 0.02 0.03 0.04 0.06 0.08 0.09 0.10 0.10 0.10 0.11 0.11 0.11 0.12 0.12 0.12 0.14
0.03 0.02 0.01 0.02 0.03 0.02 0.03 0.03 0.04 0.05 0.07 0.09 0.10 0.11 0.09 0.09 0.10 0.10 0.09 0.10 0.11 0.12
0.01 0.01 0.01 0.01 0.01 0.02 0.02 0.02 0.03 0.03 0.04 0.05 0.06 0.07 0.06 0.07 0.09 0.10 0.13 0.16 0.16 0.15
0.01 0.02 0.02 0.02 0.03 0.02 0.01 0.02 0.02 0.02 0.03 0.04 0.05 0.09 0.08 0.08 0.09 0.10 0.10 0.10 0.09 0.08
0.01 0.01 0.01 0.01 0.02 0.02 0.02 0.02 0.02 0.03 0.04 0.06 0.08 0.17 0.10 0.06 0.05 0.04 0.03 0.03 0.04 0.05
0.00 0.00 0.00 0.01 0.02 0.02 0.02 0.02 0.02 0.03 0.04 0.05 0.05 0.12 0.05 0.05 0.02 0.02 0.02 0.02 0.02 0.03
0.00 0.00 0.00 0.00 0.01 0.02 0.01 0.02 0.02 0.01 0.01 0.01 0.02 0.04 0.02 0.03 0.01 0.02 0.05 0.07 0.08 0.10
0.01 0.01 0.01 0.00 0.00 0.01 0.01 0.01 0.01 0.01 0.01 0.01 0.04 0.08 0.05 0.04 0.03 0.05 0.09 0.14 0.17 0.21
0.00 0.01 0.00 0.00 0.00 0.01 0.01 0.01 0.02 0.04 0.07 0.12 0.15 0.16 0.14 0.11 0.11 0.13 0.13 0.11 0.10 0.21
0.02 0.03 0.04 0.06 0.06 0.09 0.12 0.16 0.19 0.21 0.22 0.23 0.19 0.15 0.12 0.10 0.08 0.08 0.07 0.06 0.07 0.12

GFSNIL_prec_precacc24_228.txt.gz
Total_Precipitation_Accumulation
0.01 0.01 0.01 0.01 0.02 0.04 0.07 0.09 0.15 0.23 0.28 0.33 0.41 0.45 0.46 0.34 0.24 0.19 0.24 0.32 0.43 0.51
0.01 0.01 0.01 0.01 0.03 0.04 0.05 0.07 0.12 0.14 0.18 0.22 0.25 0.26 0.31 0.27 0.22 0.22 0.21 0.28 0.49 0.74
0.02 0.03 0.05 0.03 0.05 0.04 0.05 0.05 0.05 0.06 0.09 0.11 0.16 0.23 0.25 0.24 0.29 0.33 0.26 0.25 0.29 0.31
0.02 0.02 0.02 0.02 0.01 0.03 0.02 0.02 0.04 0.05 0.07 0.10 0.16 0.22 0.23 0.21 0.19 0.19 0.15 0.17 0.19 0.22
0.02 0.02 0.01 0.02 0.01 0.01 0.02 0.03 0.04 0.06 0.08 0.09 0.10 0.10 0.10 0.11 0.11 0.11 0.12 0.12 0.12 0.14
0.03 0.02 0.01 0.02 0.03 0.02 0.03 0.03 0.04 0.05 0.07 0.09 0.10 0.11 0.09 0.09 0.10 0.10 0.09 0.10 0.11 0.13
0.01 0.01 0.01 0.01 0.01 0.02 0.02 0.02 0.03 0.03 0.04 0.05 0.06 0.07 0.06 0.07 0.09 0.10 0.13 0.16 0.16 0.15
0.01 0.02 0.02 0.02 0.03 0.02 0.01 0.02 0.02 0.02 0.03 0.04 0.05 0.09 0.08 0.08 0.09 0.10 0.10 0.10 0.09 0.09
0.01 0.01 0.01 0.01 0.02 0.02 0.03 0.02 0.02 0.03 0.04 0.06 0.08 0.18 0.11 0.06 0.05 0.04 0.04 0.03 0.04 0.06
0.00 0.00 0.00 0.01 0.02 0.03 0.03 0.02 0.02 0.03 0.04 0.05 0.06 0.12 0.05 0.05 0.02 0.02 0.02 0.02 0.02 0.03
0.00 0.00 0.00 0.00 0.01 0.02 0.01 0.02 0.02 0.01 0.01 0.01 0.02 0.04 0.02 0.02 0.01 0.02 0.04 0.05 0.05 0.05
0.00 0.00 0.01 0.00 0.00 0.01 0.01 0.01 0.01 0.01 0.01 0.01 0.04 0.08 0.05 0.04 0.02 0.04 0.06 0.08 0.09 0.08
0.00 0.01 0.01 0.01 0.00 0.01 0.01 0.01 0.02 0.04 0.07 0.12 0.15 0.16 0.13 0.11 0.10 0.11 0.10 0.07 0.05 0.05
0.02 0.03 0.05 0.07 0.07 0.09 0.12 0.16 0.19 0.21 0.22 0.23 0.19 0.14 0.11 0.09 0.08 0.08 0.06 0.05 0.04 0.03

GFSNIL_prec_precacc24_231.txt.gz
Total_Precipitation_Accumulation
0.01 0.01 0.01 0.01 0.02 0.03 0.06 0.07 0.12 0.20 0.25 0.31 0.40 0.44 0.46 0.34 0.23 0.19 0.24 0.32 0.44 0.51
0.01 0.01 0.01 0.01 0.02 0.04 0.04 0.07 0.12 0.14 0.18 0.22 0.25 0.26 0.31 0.27 0.22 0.22 0.21 0.28 0.49 0.74
0.02 0.03 0.05 0.03 0.05 0.04 0.05 0.05 0.05 0.06 0.09 0.11 0.16 0.23 0.25 0.24 0.29 0.33 0.26 0.25 0.29 0.31
0.02 0.02 0.02 0.02 0.01 0.03 0.02 0.02 0.04 0.05 0.07 0.10 0.16 0.22 0.23 0.21 0.19 0.19 0.15 0.17 0.19 0.22
0.02 0.02 0.01 0.02 0.01 0.01 0.02 0.03 0.04 0.06 0.08 0.09 0.10 0.10 0.10 0.11 0.11 0.11 0.12 0.12 0.12 0.14
0.03 0.02 0.01 0.02 0.03 0.02 0.03 0.03 0.04 0.05 0.07 0.09 0.10 0.11 0.09 0.09 0.10 0.10 0.09 0.10 0.11 0.13
0.01 0.01 0.01 0.01 0.01 0.02 0.02 0.02 0.03 0.03 0.04 0.05 0.06 0.07 0.06 0.07 0.09 0.10 0.13 0.16 0.16 0.15
0.01 0.02 0.02 0.02 0.03 0.02 0.01 0.02 0.02 0.02 0.03 0.04 0.05 0.09 0.08 0.08 0.09 0.10 0.10 0.10 0.09 0.09
0.01 0.01 0.01 0.02 0.02 0.03 0.03 0.03 0.02 0.03 0.04 0.06 0.08 0.18 0.11 0.06 0.05 0.04 0.04 0.03 0.04 0.06
0.00 0.00 0.00 0.01 0.02 0.03 0.03 0.02 0.02 0.03 0.04 0.05 0.06 0.13 0.05 0.05 0.02 0.02 0.02 0.02 0.02 0.03
0.00 0.00 0.00 0.00 0.01 0.02 0.02 0.03 0.02 0.01 0.01 0.01 0.02 0.04 0.02 0.02 0.01 0.02 0.04 0.05 0.05 0.04
0.00 0.00 0.00 0.00 0.00 0.01 0.01 0.01 0.01 0.01 0.01 0.01 0.04 0.08 0.05 0.04 0.02 0.04 0.06 0.08 0.08 0.07
0.00 0.01 0.01 0.01 0.00 0.01 0.01 0.01 0.02 0.04 0.07 0.12 0.15 0.16 0.13 0.11 0.10 0.11 0.10 0.07 0.04 0.05
0.01 0.03 0.05 0.07 0.07 0.09 0.12 0.16 0.19 0.21 0.22 0.23 0.19 0.14 0.11 0.09 0.08 0.08 0.06 0.04 0.04 0.03

GFSNIL_prec_precacc24_237.txt.gz
Total_Precipitation_Accumulation
0.00 0.00 0.00 0.00 0.01 0.01 0.03 0.04 0.08 0.14 0.17 0.18 0.20 0.25 0.27 0.16 0.13 0.15 0.20 0.27 0.40 0.48
0.00 0.00 0.00 0.00 0.00 0.00 0.00 0.00 0.02 0.04 0.08 0.10 0.14 0.16 0.22 0.20 0.19 0.20 0.20 0.26 0.47 0.72
0.00 0.00 0.00 0.00 0.00 0.00 0.00 0.00 0.00 0.02 0.05 0.06 0.11 0.18 0.22 0.21 0.27 0.33 0.26 0.25 0.28 0.31
0.00 0.00 0.00 0.00 0.00 0.00 0.00 0.00 0.01 0.02 0.04 0.08 0.13 0.19 0.22 0.21 0.19 0.19 0.15 0.17 0.19 0.22
0.00 0.00 0.00 0.00 0.00 0.00 0.00 0.00 0.01 0.02 0.05 0.07 0.10 0.10 0.10 0.11 0.11 0.11 0.12 0.12 0.12 0.14
0.00 0.00 0.00 0.00 0.00 0.00 0.00 0.01 0.02 0.03 0.05 0.08 0.10 0.11 0.09 0.09 0.10 0.10 0.09 0.11 0.11 0.13
0.00 0.00 0.00 0.00 0.00 0.01 0.02 0.02 0.02 0.03 0.04 0.05 0.06 0.07 0.06 0.07 0.09 0.11 0.14 0.17 0.16 0.15
0.01 0.01 0.01 0.01 0.02 0.02 0.01 0.02 0.02 0.02 0.03 0.04 0.06 0.09 0.08 0.08 0.09 0.10 0.11 0.11 0.09 0.10
0.01 0.01 0.01 0.02 0.02 0.03 0.04 0.03 0.03 0.04 0.05 0.07 0.08 0.18 0.11 0.07 0.05 0.04 0.05 0.04 0.05 0.08
0.00 0.00 0.00 0.01 0.03 0.04 0.04 0.04 0.04 0.05 0.07 0.08 0.07 0.14 0.06 0.06 0.03 0.03 0.03 0.04 0.04 0.04
0.00 0.00 0.00 0.00 0.01 0.02 0.02 0.04 0.04 0.04 0.07 0.04 0.04 0.07 0.07 0.12 0.07 0.04 0.05 0.07 0.06 0.05
0.00 0.00 0.00 0.01 0.00 0.01 0.01 0.02 0.03 0.06 0.05 0.06 0.09 0.19 0.22 0.18 0.09 0.09 0.12 0.11 0.09 0.08
0.00 0.01 0.01 0.01 0.00 0.01 0.01 0.01 0.01 0.04 0.09 0.13 0.20 0.30 0.29 0.21 0.21 0.24 0.18 0.11 0.07 0.07
0.00 0.01 0.03 0.03 0.01 0.01 0.02 0.03 0.07 0.09 0.13 0.17 0.21 0.30 0.33 0.23 0.20 0.17 0.13 0.08 0.05 0.05

GFSNIL_prec_precacc24_240.txt.gz
Total_Precipitation_Accumulation
0.00 0.00 0.00 0.00 0.00 0.00 0.00 0.00 0.04 0.09 0.12 0.15 0.16 0.18 0.18 0.11 0.09 0.11 0.15 0.19 0.26 0.41
0.00 0.00 0.00 0.00 0.00 0.00 0.00 0.00 0.00 0.01 0.03 0.04 0.07 0.08 0.11 0.10 0.09 0.13 0.16 0.18 0.30 0.67
0.00 0.00 0.00 0.00 0.00 0.00 0.00 0.00 0.00 0.00 0.01 0.02 0.05 0.10 0.14 0.12 0.15 0.21 0.20 0.22 0.25 0.29
0.00 0.00 0.00 0.00 0.00 0.00 0.00 0.00 0.00 0.00 0.01 0.04 0.06 0.08 0.11 0.11 0.11 0.11 0.12 0.15 0.17 0.22
0.00 0.00 0.00 0.00 0.00 0.00 0.00 0.00 0.00 0.00 0.01 0.02 0.03 0.03 0.03 0.06 0.07 0.09 0.11 0.11 0.12 0.14
0.00 0.00 0.00 0.00 0.00 0.00 0.00 0.00 0.00 0.01 0.01 0.02 0.04 0.05 0.06 0.06 0.09 0.10 0.09 0.11 0.11 0.13
0.00 0.00 0.00 0.00 0.00 0.00 0.00 0.00 0.00 0.00 0.01 0.02 0.04 0.05 0.05 0.07 0.09 0.11 0.14 0.17 0.16 0.15
0.00 0.00 0.00 0.00 0.00 0.00 0.00 0.00 0.00 0.01 0.01 0.03 0.05 0.08 0.08 0.08 0.09 0.10 0.11 0.11 0.09 0.10
0.00 0.00 0.00 0.01 0.01 0.01 0.02 0.02 0.02 0.03 0.05 0.07 0.08 0.18 0.11 0.07 0.06 0.05 0.05 0.05 0.05 0.08
0.00 0.00 0.00 0.00 0.01 0.02 0.03 0.03 0.04 0.05 0.07 0.08 0.07 0.14 0.06 0.07 0.05 0.05 0.04 0.04 0.04 0.05
0.00 0.00 0.00 0.00 0.00 0.02 0.02 0.04 0.04 0.04 0.07 0.04 0.04 0.08 0.07 0.14 0.18 0.10 0.07 0.06 0.05 0.06
0.00 0.00 0.00 0.00 0.00 0.01 0.01 0.02 0.03 0.06 0.05 0.06 0.09 0.18 0.24 0.28 0.24 0.19 0.15 0.15 0.14 0.13
0.00 0.01 0.01 0.01 0.00 0.01 0.01 0.01 0.01 0.03 0.07 0.08 0.12 0.19 0.18 0.18 0.23 0.26 0.23 0.22 0.17 0.18
0.00 0.01 0.03 0.03 0.01 0.01 0.01 0.01 0.01 0.01 0.01 0.01 0.06 0.19 0.28 0.22 0.21 0.19 0.21 0.20 0.17 0.16

GFSNIL_prec_precacc24_246.txt.gz
Total_Precipitation_Accumulation
0.00 0.00 0.00 0.00 0.00 0.00 0.00 0.00 0.00 0.00 0.00 0.00 0.00 0.01 0.00 0.00 0.00 0.02 0.02 0.05 0.09 0.11
0.00 0.00 0.01 0.00 0.00 0.00 0.00 0.00 0.00 0.00 0.00 0.00 0.00 0.00 0.00 0.00 0.00 0.01 0.02 0.04 0.07 0.12
0.00 0.00 0.00 0.00 0.01 0.02 0.02 0.01 0.00 0.00 0.00 0.00 0.00 0.00 0.00 0.00 0.01 0.03 0.04 0.04 0.05 0.09
0.00 0.00 0.00 0.02 0.05 0.06 0.08 0.05 0.01 0.01 0.01 0.01 0.01 0.01 0.01 0.01 0.01 0.01 0.01 0.02 0.03 0.04
0.00 0.04 0.09 0.15 0.19 0.38 0.52 0.44 0.22 0.14 0.10 0.10 0.08 0.05 0.02 0.01 0.01 0.00 0.00 0.01 0.02 0.03
0.01 0.02 0.05 0.09 0.16 0.26 0.42 0.75 0.91 0.82 0.52 0.23 0.12 0.07 0.02 0.01 0.01 0.01 0.03 0.04 0.04 0.03
0.02 0.02 0.01 0.01 0.01 0.01 0.01 0.03 0.08 0.21 0.23 0.16 0.09 0.05 0.03 0.01 0.01 0.02 0.03 0.08 0.10 0.11
0.00 0.00 0.00 0.00 0.00 0.00 0.00 0.00 0.00 0.02 0.04 0.05 0.03 0.01 0.01 0.01 0.02 0.03 0.06 0.07 0.06 0.09
0.00 0.00 0.00 0.00 0.00 0.01 0.01 0.01 0.01 0.01 0.01 0.01 0.01 0.02 0.02 0.02 0.03 0.03 0.04 0.04 0.05 0.08
0.00 0.00 0.00 0.00 0.01 0.02 0.01 0.02 0.02 0.02 0.03 0.03 0.02 0.04 0.04 0.07 0.07 0.07 0.06 0.06 0.05 0.06
0.00 0.00 0.00 0.00 0.00 0.01 0.01 0.02 0.02 0.03 0.05 0.03 0.02 0.05 0.07 0.15 0.19 0.12 0.09 0.07 0.06 0.07
0.00 0.00 0.00 0.00 0.00 0.00 0.01 0.02 0.03 0.06 0.05 0.05 0.07 0.15 0.24 0.28 0.23 0.19 0.15 0.13 0.11 0.10
0.00 0.01 0.01 0.01 0.00 0.01 0.01 0.01 0.01 0.03 0.07 0.08 0.12 0.19 0.19 0.17 0.20 0.21 0.17 0.17 0.15 0.20
0.00 0.01 0.02 0.02 0.01 0.01 0.01 0.01 0.01 0.01 0.01 0.01 0.06 0.18 0.25 0.17 0.15 0.13 0.16 0.18 0.16 0.16

GFSNIL_prec_precacc24_252.txt.gz
Total_Precipitation_Accumulation
0.03 0.01 0.01 0.00 0.00 0.00 0.00 0.00 0.01 0.00 0.00 0.00 0.00 0.00 0.00 0.00 0.00 0.00 0.00 0.00 0.00 0.00
0.05 0.06 0.05 0.02 0.02 0.01 0.00 0.00 0.01 0.02 0.01 0.01 0.00 0.00 0.00 0.00 0.00 0.00 0.00 0.00 0.00 0.00
0.04 0.06 0.07 0.06 0.05 0.06 0.06 0.08 0.07 0.04 0.01 0.01 0.01 0.01 0.00 0.00 0.00 0.00 0.00 0.00 0.00 0.00
0.02 0.06 0.08 0.13 0.14 0.13 0.13 0.10 0.07 0.07 0.08 0.09 0.12 0.11 0.05 0.04 0.03 0.01 0.01 0.01 0.01 0.01
0.01 0.06 0.16 0.27 0.36 0.55 0.69 0.58 0.36 0.32 0.31 0.29 0.28 0.28 0.19 0.14 0.14 0.12 0.11 0.11 0.07 0.05
0.01 0.03 0.10 0.18 0.31 0.43 0.56 0.96 1.33 1.54 1.20 0.78 0.57 0.47 0.37 0.21 0.11 0.07 0.05 0.06 0.04 0.04
0.02 0.02 0.02 0.04 0.06 0.07 0.06 0.08 0.13 0.29 0.39 0.47 0.58 0.68 0.72 0.68 0.56 0.37 0.22 0.15 0.11 0.08
0.01 0.01 0.00 0.00 0.00 0.00 0.01 0.01 0.02 0.05 0.08 0.12 0.16 0.21 0.27 0.39 0.56 0.62 0.53 0.39 0.25 0.17
0.01 0.01 0.02 0.02 0.01 0.01 0.01 0.01 0.01 0.01 0.01 0.01 0.02 0.05 0.10 0.15 0.18 0.23 0.26 0.24 0.19 0.12
0.03 0.03 0.03 0.05 0.05 0.03 0.01 0.02 0.02 0.02 0.03 0.03 0.01 0.02 0.02 0.05 0.06 0.07 0.07 0.09 0.11 0.11
0.00 0.01 0.03 0.04 0.05 0.06 0.04 0.03 0.02 0.03 0.05 0.03 0.01 0.04 0.07 0.14 0.18 0.10 0.06 0.03 0.02 0.04
0.00 0.00 0.00 0.01 0.02 0.03 0.04 0.04 0.04 0.07 0.05 0.05 0.07 0.14 0.24 0.28 0.23 0.18 0.12 0.11 0.09 0.08
0.00 0.00 0.00 0.00 0.00 0.00 0.01 0.01 0.02 0.04 0.08 0.08 0.12 0.18 0.18 0.17 0.20 0.21 0.17 0.17 0.15 0.20
0.00 0.00 0.00 0.00 0.00 0.00 0.00 0.00 0.01 0.01 0.01 0.02 0.06 0.18 0.25 0.17 0.15 0.13 0.16 0.18 0.16 0.17